OK1UDZ-5 Weather Reports


time (UTC)temp
C
wind
direction
speed
KPH
gust
KPH
rain 1hr
cm
rain 24hr
cm
rain mn
cm
humidity
%
barometer
mb
20260505223812 -17 180 0.0 0.0 0.00 0.00 0.00 1004.5
20260505223012 -17 180 0.0 0.0 0.00 0.00 0.00 1004.5
20260505222212 -17 203 0.0 0.0 0.00 0.00 0.00 1004.1
20260505221412 -17 180 0.0 0.0 0.00 0.00 0.00 1004.2
20260505220611 -17 135 0.0 0.0 0.00 0.00 0.00 1003.8
20260505215809 -17 135 0.0 0.0 0.00 0.00 0.00 1003.9
20260505215008 -17 135 0.0 0.0 0.00 0.00 0.00 1003.9
20260505214208 -17 135 0.0 0.0 0.00 0.00 0.00 1003.8
20260505213407 -17 135 0.0 0.0 0.00 0.00 0.00 1003.8
20260505212606 -17 180 0.0 0.0 0.00 0.00 0.00 1003.7
20260505211803 -17 113 0.0 0.0 0.00 0.00 0.00 1003.7
20260505211002 -17 135 0.0 0.0 0.00 0.00 0.00 1003.9
20260505210157 -17 135 0.0 0.0 0.00 0.00 0.00 1003.8
20260505205350 -17 135 0.0 0.0 0.00 0.00 0.00 1003.8
20260505204549 -17 180 0.0 0.0 0.00 0.00 0.00 1003.8
20260505203741 -17 135 0.0 0.0 0.00 0.00 0.00 1003.8
20260505202940 -17 135 0.0 0.0 0.00 0.00 0.00 1003.8
20260505202136 -17 180 0.0 0.0 0.00 0.00 0.00 1003.8
20260505201336 -17 135 0.0 3.2 0.00 0.00 0.00 1003.7
20260505200531 -17 135 0.0 0.0 0.00 0.00 0.00 1003.7
20260505195727 -17 180 0.0 1.6 0.00 0.00 0.00 1003.7
20260505194918 -17 180 0.0 11.3 0.00 0.00 0.00 1003.6
20260505194111 -17 180 0.0 0.0 0.00 0.00 0.00 1003.6
20260505193312 -17 135 0.0 0.0 0.00 0.00 0.00 1003.6
20260505192458 -17 135 0.0 0.0 0.00 0.00 0.00 1003.6
20260505191643 -17 180 0.0 0.0 0.00 0.00 0.00 1003.4
20260505190811 -17 180 0.0 0.0 0.00 0.00 0.00 1003.5
20260505185929 -17 180 0.0 0.0 0.00 0.00 0.00 1003.4
20260505185102 -17 180 0.0 0.0 0.00 0.00 0.00 1003.2
20260505184230 -17 135 0.0 0.0 0.00 0.00 0.00 1003.1
20260505183409 -17 135 0.0 0.0 0.00 0.00 0.00 1003.1
20260505182601 -17 180 0.0 0.0 0.00 0.00 0.00 1003.0
20260505181753 -17 135 0.0 0.0 0.00 0.00 0.00 1003.0
20260505180946 -17 203 0.0 0.0 0.00 0.00 0.00 1003.0
20260505180141 -17 135 0.0 0.0 0.00 0.00 0.00 1003.0
20260505175334 -17 135 0.0 0.0 0.00 0.00 0.00 1002.8
20260505174531 -17 135 0.0 0.0 0.00 0.00 0.00 1002.8
20260505173728 -17 113 0.0 0.0 0.00 0.00 0.00 1002.8
20260505172924 -17 180 0.0 0.0 0.00 0.00 0.00 1002.7
20260505172115 -17 135 0.0 0.0 0.00 0.00 0.00 1002.7
20260505171309 -17 180 0.0 0.0 0.00 0.00 0.00 1002.6
20260505170507 -17 135 0.0 0.0 0.00 0.00 0.00 1002.7
20260505165700 -17 135 0.0 0.0 0.00 0.00 0.00 1002.6
20260505164855 -17 135 0.0 0.0 0.00 0.00 0.00 1002.7
20260505164050 -17 135 0.0 0.0 0.00 0.00 0.00 1002.8
20260505162439 -17 180 0.0 1.6 0.00 0.00 0.00 1002.9
20260505161635 -17 180 0.0 0.0 0.00 0.00 0.00 1002.9
20260505160832 -17 135 0.0 0.0 0.00 0.00 0.00 1002.9
20260505152814 -17 180 0.0 0.0 0.00 0.00 0.00 1002.2
20260505152013 -17 180 0.0 0.0 0.00 0.00 0.00 1001.9
20260505151210 -17 180 0.0 0.0 0.00 0.00 0.00 1002.1
20260505150408 -17 180 0.0 0.0 0.00 0.00 0.00 1002.2
20260505124742 -17 180 0.0 3.2 0.00 0.00 0.00 1003.3
20260505123941 -17 180 0.0 0.0 0.00 0.00 0.00 1003.3
20260505123140 -17 180 0.0 3.2 0.00 0.00 0.00 1003.3
20260505122339 -17 180 0.0 0.0 0.00 0.00 0.00 1003.5
20260505121538 -17 180 0.0 3.2 0.00 0.00 0.00 1003.4
20260505120736 -17 180 0.0 1.6 0.00 0.00 0.00 1003.7
20260505115939 -17 90 0.0 1.6 0.00 0.00 0.00 1003.6
20260505115133 -17 180 0.0 3.2 0.00 0.00 0.00 1003.6
20260505114334 -17 203 0.0 0.0 0.00 0.00 0.00 1004.0
20260505113533 -17 180 0.0 0.0 0.00 0.00 0.00 1003.9
20260505112733 -17 180 0.0 0.0 0.00 0.00 0.00 1004.1
20260505111932 -17 158 0.0 3.2 0.00 0.00 0.00 1004.2
20260505111131 -17 180 0.0 3.2 0.00 0.00 0.00 1004.4
20260505110332 -17 180 0.0 0.0 0.00 0.00 0.00 1004.5
20260505101534 -17 135 0.0 0.0 0.00 0.00 0.00 1004.8
20260505100733 -17 180 0.0 0.0 0.00 0.00 0.00 1005.1
20260505095931 -17 135 0.0 0.0 0.00 0.00 0.00 1005.1
20260505095130 -17 45 0.0 0.0 0.00 0.00 0.00 1005.3
20260505094331 -17 135 0.0 0.0 0.00 0.00 0.00 1005.4
20260505093529 -17 135 0.0 0.0 0.00 0.00 0.00 1005.3
20260505092729 -17 180 0.0 0.0 0.00 0.00 0.00 1005.5
20260505091930 -17 135 0.0 0.0 0.00 0.00 0.00 1005.4
20260505091129 -17 113 0.0 0.0 0.00 0.00 0.00 1005.6
20260505090329 -17 135 0.0 1.6 0.00 0.00 0.00 1005.7
20260505085529 -17 90 0.0 6.4 0.00 0.00 0.00 1005.9
20260505084729 -17 180 0.0 0.0 0.00 0.00 0.00 1006.0
20260505083927 -17 135 0.0 0.0 0.00 0.00 0.00 1006.0
20260505083123 -17 113 0.0 0.0 0.00 0.00 0.00 1006.1
20260505082316 -17 135 0.0 0.0 0.00 0.00 0.00 1006.4
20260505081510 -17 135 0.0 0.0 0.00 0.00 0.00 1006.6
20260505080709 -17 135 0.0 0.0 0.00 0.00 0.00 1006.8
20260505075909 -17 180 0.0 0.0 0.00 0.00 0.00 1007.1
20260505075108 -17 135 0.0 0.0 0.00 0.00 0.00 1007.1
20260505074311 -17 180 0.0 1.6 0.00 0.00 0.00 1007.2
20260505073509 -17 135 0.0 0.0 0.00 0.00 0.00 1007.2
20260505072708 -17 135 0.0 0.0 0.00 0.00 0.00 1007.2
20260505071908 -17 180 0.0 0.0 0.00 0.00 0.00 1007.5
20260505071108 -17 158 0.0 3.2 0.00 0.00 0.00 1007.7
20260505070308 -17 135 0.0 0.0 0.00 0.00 0.00 1007.7
20260505065509 -17 180 0.0 6.4 0.00 0.00 0.00 1007.6
20260505064708 -17 135 0.0 0.0 0.00 0.00 0.00 1007.6
20260505063906 -17 180 0.0 0.0 0.00 0.00 0.00 1007.5
20260505063104 -17 135 0.0 0.0 0.00 0.00 0.00 1007.5
20260505062304 -17 180 0.0 0.0 0.00 0.00 0.00 1007.5
20260505061504 -17 180 0.0 0.0 0.00 0.00 0.00 1007.5
20260505060703 -17 203 0.0 0.0 0.00 0.00 0.00 1007.7
20260505055903 -17 180 0.0 0.0 0.00 0.00 0.00 1007.9
20260505055102 -17 180 0.0 6.4 0.00 0.00 0.00 1007.9
20260505054302 -17 135 0.0 0.0 0.00 0.00 0.00 1008.0
20260505053503 -17 180 0.0 0.0 0.00 0.00 0.00 1007.8
20260505052703 -17 180 0.0 0.0 0.00 0.00 0.00 1007.9
20260505051902 -17 180 0.0 0.0 0.00 0.00 0.00 1008.2
20260505051102 -17 180 0.0 0.0 0.00 0.00 0.00 1008.2
20260505050303 -17 203 0.0 0.0 0.00 0.00 0.00 1008.4
20260505041502 -17 135 0.0 0.0 0.00 0.00 0.00 1009.8
20260505040701 -17 135 0.0 0.0 0.00 0.00 0.00 1010.0
20260505035900 -17 135 0.0 0.0 0.00 0.00 0.00 1010.1
20260505035100 -17 45 0.0 0.0 0.00 0.00 0.00 1010.2
20260505034301 -17 45 0.0 0.0 0.00 0.00 0.00 1010.2
20260505033502 -17 135 0.0 0.0 0.00 0.00 0.00 1010.3
20260505032701 -17 135 0.0 0.0 0.00 0.00 0.00 1010.3
20260505031902 -17 135 0.0 0.0 0.00 0.00 0.00 1010.3
20260505031101 -17 135 0.0 0.0 0.00 0.00 0.00 1010.3
20260505030300 -17 135 0.0 0.0 0.00 0.00 0.00 1010.4
20260505025500 -17 45 0.0 0.0 0.00 0.00 0.00 1010.4
20260505024659 -17 45 0.0 0.0 0.00 0.00 0.00 1010.6
20260505023901 -17 45 0.0 0.0 0.00 0.00 0.00 1010.4
20260505023101 -17 45 0.0 0.0 0.00 0.00 0.00 1010.3
20260505022304 -17 45 0.0 0.0 0.00 0.00 0.00 1010.4
20260505021501 -17 45 0.0 0.0 0.00 0.00 0.00 1010.4
20260505020700 -17 45 0.0 0.0 0.00 0.00 0.00 1010.3
20260505015858 -17 45 0.0 0.0 0.00 0.00 0.00 1010.2
20260505015057 -17 90 0.0 0.0 0.00 0.00 0.00 1010.2
20260505014258 -17 135 0.0 0.0 0.00 0.00 0.00 1010.2
20260505013456 -17 135 0.0 0.0 0.00 0.00 0.00 1010.1
20260505012656 -17 45 0.0 0.0 0.00 0.00 0.00 1010.2
20260505011855 -17 90 0.0 0.0 0.00 0.00 0.00 1009.9
20260505011055 -17 45 0.0 0.0 0.00 0.00 0.00 1010.0
20260505010256 -17 180 0.0 0.0 0.00 0.00 0.00 1009.5
20260505005456 -17 180 0.0 0.0 0.00 0.00 0.00 1009.4
20260505004655 -17 158 0.0 0.0 0.00 0.00 0.00 1009.5
20260505003854 -17 158 0.0 0.0 0.00 0.00 0.00 1009.6
20260505003054 -17 180 0.0 0.0 0.00 0.00 0.00 1009.6
20260505002254 -17 180 0.0 0.0 0.00 0.00 0.00 1009.8
20260505001454 -17 248 0.0 0.0 0.00 0.00 0.00 1010.0
20260505000654 -17 180 0.0 0.0 0.00 0.00 0.00 1010.0
20260504235854 -17 248 0.0 0.0 0.00 0.00 0.00 1010.1
20260504235055 -17 180 0.0 0.0 0.00 0.00 0.00 1010.1
20260504234254 -17 180 0.0 0.0 0.00 0.00 0.00 1010.2
20260504233455 -17 135 0.0 0.0 0.00 0.00 0.00 1010.2
20260504232654 -17 158 0.0 0.0 0.00 0.00 0.00 1010.3
20260504231854 -17 158 0.0 0.0 0.00 0.00 0.00 1010.3
20260504231053 -17 180 0.0 0.0 0.00 0.00 0.00 1010.4
20260504230251 -17 135 0.0 0.0 0.00 0.00 0.00 1010.5
20260504225447 -17 135 0.0 0.0 0.00 0.00 0.00 1010.6
20260504224625 -17 135 0.0 0.0 0.00 0.00 0.00 1010.7